Terug naar catalogus

BREEZE-M DEB

TANK

ActiefHEO
NORAD 38246·DEBRIS·🇷🇺 Russia

Gelanceerd Apr 23, 2012 vanaf Baikonur Cosmodrome

Loading…

Volgende Passages (komende 24 uur)

TLE

VersSource: Space-Track

Epoch: Sep 13, 2026, 05:14 UTC

1 38246U 12016B   26256.21866493  .00003553  00000-0  65196-3 0  9999
2 38246  49.5117 191.5579 4999921  66.0647 337.7128  5.61240102286054

Volg BREEZE-M DEB in realtime met AllMySat

Download on the App Store